QPF
0.06 0.07 0.09 0.09 0.09 0.10 0.12 0.12 0.09 0.11 0.10 0.10 0.09 0.09 0.10 0.11 0.11 0.11 0.12 0.11 0.15 0.13 0.14 0.13 0.09 0.09 0.10 0.10 0.09 0.08 0.06 0.06 0.05 0.04 0.03 0.04 0.04 0.05 0.05 0.03 0.03 0.03 0.03
0.05 0.08 0.10 0.10 0.11 0.10 0.10 0.08 0.09 0.09 0.08 0.08 0.08 0.09 0.11 0.12 0.13 0.11 0.11 0.09 0.09 0.12 0.14 0.12 0.10 0.09 0.10 0.12 0.10 0.08 0.07 0.08 0.07 0.04 0.03 0.03 0.03 0.02 0.04 0.04 0.03 0.04 0.04
0.06 0.09 0.09 0.08 0.07 0.06 0.06 0.06 0.06 0.07 0.07 0.08 0.09 0.10 0.11 0.12 0.15 0.14 0.11 0.10 0.11 0.14 0.14 0.12 0.11 0.12 0.15 0.15 0.13 0.10 0.09 0.08 0.07 0.07 0.07 0.05 0.04 0.03 0.03 0.04 0.04 0.05 0.04
0.05 0.08 0.07 0.06 0.05 0.04 0.04 0.05 0.05 0.05 0.07 0.08 0.09 0.10 0.11 0.13 0.18 0.20 0.15 0.12 0.14 0.14 0.12 0.11 0.12 0.13 0.13 0.14 0.13 0.11 0.10 0.08 0.07 0.05 0.05 0.05 0.04 0.03 0.03 0.04 0.04 0.04 0.04
0.06 0.09 0.06 0.04 0.04 0.04 0.03 0.04 0.05 0.06 0.07 0.07 0.09 0.10 0.11 0.16 0.21 0.21 0.17 0.14 0.12 0.09 0.11 0.13 0.14 0.10 0.11 0.11 0.11 0.11 0.09 0.08 0.07 0.05 0.04 0.04 0.05 0.05 0.04 0.05 0.06 0.05 0.05
0.07 0.09 0.06 0.04 0.03 0.03 0.03 0.05 0.05 0.06 0.06 0.06 0.07 0.08 0.11 0.13 0.17 0.19 0.20 0.18 0.14 0.11 0.12 0.12 0.11 0.11 0.12 0.11 0.10 0.08 0.07 0.08 0.07 0.05 0.04 0.04 0.04 0.05 0.05 0.06 0.06 0.06 0.06
0.09 0.08 0.06 0.05 0.05 0.05 0.05 0.05 0.05 0.04 0.04 0.05 0.06 0.08 0.10 0.12 0.12 0.15 0.17 0.13 0.12 0.13 0.14 0.12 0.10 0.11 0.11 0.09 0.07 0.06 0.05 0.05 0.05 0.05 0.05 0.04 0.03 0.03 0.05 0.06 0.06 0.07 0.06
0.07 0.06 0.05 0.05 0.05 0.05 0.05 0.05 0.06 0.05 0.04 0.05 0.06 0.08 0.09 0.08 0.08 0.09 0.10 0.08 0.08 0.09 0.11 0.10 0.08 0.09 0.09 0.09 0.07 0.06 0.05 0.04 0.03 0.03 0.03 0.03 0.03 0.03 0.05 0.04 0.04 0.05 0.05
0.05 0.04 0.03 0.03 0.03 0.04 0.04 0.04 0.05 0.05 0.06 0.07 0.07 0.09 0.08 0.08 0.07 0.06 0.07 0.06 0.07 0.08 0.10 0.11 0.11 0.11 0.10 0.09 0.10 0.11 0.10 0.06 0.04 0.03 0.02 0.03 0.02 0.03 0.05 0.05 0.04 0.03 0.04
0.06 0.04 0.03 0.02 0.01 0.02 0.04 0.04 0.05 0.06 0.09 0.09 0.08 0.08 0.10 0.10 0.09 0.08 0.09 0.10 0.11 0.10 0.10 0.11 0.13 0.13 0.11 0.09 0.11 0.14 0.15 0.13 0.07 0.04 0.03 0.02 0.02 0.02 0.04 0.05 0.04 0.03 0.03
0.05 0.04 0.03 0.02 0.02 0.02 0.03 0.03 0.06 0.06 0.08 0.11 0.17 0.10 0.11 0.14 0.14 0.12 0.11 0.17 0.20 0.17 0.15 0.12 0.13 0.12 0.12 0.08 0.08 0.11 0.17 0.15 0.11 0.09 0.05 0.02 0.03 0.03 0.04 0.05 0.06 0.05 0.04
0.04 0.03 0.02 0.02 0.02 0.03 0.02 0.04 0.07 0.06 0.07 0.11 0.23 0.18 0.16 0.15 0.14 0.14 0.14 0.17 0.23 0.23 0.22 0.18 0.15 0.12 0.11 0.11 0.10 0.08 0.07 0.07 0.07 0.07 0.04 0.03 0.03 0.04 0.05 0.07 0.08 0.08 0.05
0.02 0.01 0.01 0.01 0.01 0.02 0.03 0.05 0.04 0.05 0.07 0.08 0.17 0.24 0.17 0.14 0.14 0.14 0.18 0.20 0.26 0.26 0.22 0.17 0.14 0.13 0.11 0.12 0.11 0.08 0.07 0.07 0.07 0.06 0.05 0.04 0.05 0.05 0.06 0.09 0.10 0.08 0.04
0.01 0.01 0.01 0.01 0.01 0.02 0.03 0.03 0.03 0.03 0.04 0.07 0.12 0.15 0.11 0.13 0.14 0.17 0.22 0.21 0.22 0.22 0.18 0.15 0.13 0.11 0.10 0.09 0.09 0.07 0.06 0.07 0.07 0.08 0.08 0.05 0.05 0.05 0.07 0.11 0.09 0.06 0.05
0.01 0.01 0.01 0.02 0.02 0.03 0.03 0.03 0.02 0.03 0.03 0.04 0.06 0.06 0.07 0.10 0.15 0.21 0.23 0.19 0.16 0.19 0.15 0.13 0.11 0.09 0.09 0.10 0.08 0.07 0.06 0.05 0.05 0.06 0.07 0.05 0.05 0.07 0.08 0.11 0.10 0.08 0.06
0.01 0.02 0.02 0.01 0.02 0.03 0.02 0.03 0.04 0.03 0.04 0.03 0.03 0.04 0.06 0.08 0.13 0.21 0.20 0.16 0.16 0.18 0.14 0.11 0.11 0.10 0.09 0.09 0.09 0.07 0.05 0.04 0.04 0.06 0.08 0.09 0.08 0.07 0.08 0.08 0.07 0.07 0.07
0.03 0.02 0.01 0.01 0.01 0.02 0.02 0.02 0.03 0.03 0.03 0.03 0.04 0.04 0.07 0.08 0.08 0.13 0.14 0.16 0.19 0.15 0.12 0.10 0.12 0.12 0.08 0.07 0.08 0.07 0.06 0.06 0.05 0.05 0.06 0.07 0.07 0.05 0.05 0.07 0.06 0.05 0.05
0.02 0.03 0.02 0.01 0.01 0.02 0.02 0.03 0.03 0.03 0.03 0.03 0.03 0.04 0.05 0.07 0.07 0.08 0.08 0.10 0.12 0.09 0.08 0.09 0.10 0.09 0.08 0.07 0.07 0.08 0.10 0.10 0.07 0.08 0.07 0.05 0.06 0.06 0.06 0.06 0.06 0.05 0.05
0.02 0.02 0.02 0.02 0.02 0.02 0.02 0.03 0.02 0.02 0.03 0.03 0.02 0.03 0.04 0.05 0.06 0.06 0.06 0.06 0.05 0.06 0.05 0.04 0.06 0.08 0.08 0.07 0.06 0.06 0.08 0.09 0.08 0.10 0.11 0.06 0.04 0.06 0.06 0.05 0.05 0.05 0.06
0.03 0.03 0.02 0.02 0.02 0.02 0.03 0.04 0.04 0.04 0.03 0.02 0.03 0.03 0.05 0.05 0.05 0.05 0.04 0.06 0.07 0.08 0.07 0.06 0.06 0.07 0.07 0.07 0.05 0.04 0.04 0.05 0.07 0.09 0.09 0.07 0.05 0.04 0.02 0.03 0.05 0.05 0.07
0.01 0.03 0.03 0.03 0.02 0.02 0.03 0.05 0.06 0.05 0.04 0.03 0.02 0.03 0.05 0.06 0.05 0.06 0.05 0.08 0.10 0.10 0.08 0.07 0.06 0.07 0.07 0.07 0.08 0.09 0.08 0.07 0.09 0.09 0.08 0.08 0.07 0.05 0.03 0.02 0.03 0.04 0.06
0.02 0.03 0.03 0.02 0.02 0.02 0.03 0.05 0.08 0.06 0.04 0.03 0.03 0.04 0.04 0.03 0.04 0.04 0.06 0.08 0.09 0.09 0.07 0.07 0.07 0.09 0.07 0.07 0.09 0.11 0.13 0.14 0.13 0.09 0.09 0.09 0.09 0.08 0.06 0.04 0.03 0.05 0.04
0.06 0.06 0.04 0.03 0.03 0.03 0.04 0.06 0.07 0.06 0.04 0.04 0.04 0.03 0.03 0.03 0.03 0.04 0.06 0.08 0.08 0.08 0.08 0.07 0.07 0.09 0.09 0.08 0.08 0.11 0.16 0.17 0.16 0.13 0.11 0.11 0.10 0.11 0.09 0.07 0.05 0.06 0.05
0.03 0.04 0.06 0.07 0.08 0.05 0.05 0.04 0.03 0.03 0.05 0.05 0.05 0.04 0.04 0.05 0.04 0.04 0.05 0.07 0.06 0.05 0.06 0.05 0.05 0.07 0.10 0.12 0.12 0.12 0.14 0.15 0.15 0.16 0.16 0.13 0.10 0.11 0.11 0.10 0.06 0.06 0.06
0.03 0.04 0.05 0.07 0.10 0.08 0.05 0.03 0.02 0.02 0.03 0.04 0.05 0.05 0.06 0.06 0.05 0.05 0.05 0.06 0.06 0.05 0.05 0.05 0.06 0.05 0.07 0.10 0.14 0.17 0.18 0.15 0.11 0.11 0.15 0.16 0.14 0.12 0.11 0.11 0.08 0.07 0.07
0.02 0.03 0.04 0.04 0.04 0.04 0.06 0.05 0.03 0.02 0.02 0.04 0.04 0.04 0.05 0.06 0.06 0.06 0.06 0.06 0.05 0.05 0.05 0.05 0.05 0.05 0.04 0.06 0.09 0.11 0.15 0.20 0.18 0.15 0.15 0.15 0.14 0.14 0.12 0.11 0.08 0.06 0.07
MSLP
1004.65 1004.05 1003.62 1003.30 1002.99 1002.60 1001.99 1001.12 999.98 998.67 997.32 996.12 995.23 994.78 994.82 995.30 996.16 997.24 998.43 999.61 1000.72 1001.74 1002.70 1003.63 1004.57 1005.52 1006.48 1007.40 1008.24 1008.95 1009.54 1010.01 1010.40 1010.78 1011.17 1011.62 1012.12 1012.65 1013.17 1013.64 1014.02 1014.32 1014.55
1004.67 1004.10 1003.68 1003.35 1003.00 1002.52 1001.79 1000.77 999.46 997.98 996.47 995.14 994.17 993.68 993.72 994.25 995.17 996.36 997.65 998.93 1000.14 1001.25 1002.28 1003.28 1004.27 1005.27 1006.27 1007.24 1008.11 1008.87 1009.50 1010.00 1010.43 1010.82 1011.23 1011.68 1012.18 1012.71 1013.23 1013.71 1014.12 1014.45 1014.71
1004.56 1004.04 1003.66 1003.34 1002.97 1002.42 1001.59 1000.44 998.99 997.37 995.74 994.32 993.28 992.75 992.78 993.33 994.30 995.54 996.91 998.28 999.57 1000.77 1001.88 1002.95 1004.01 1005.06 1006.10 1007.10 1008.02 1008.81 1009.47 1010.01 1010.46 1010.87 1011.29 1011.75 1012.24 1012.76 1013.28 1013.77 1014.19 1014.55 1014.84
1004.31 1003.88 1003.55 1003.26 1002.89 1002.30 1001.41 1000.17 998.64 996.93 995.23 993.75 992.67 992.11 992.13 992.68 993.66 994.93 996.35 997.77 999.14 1000.41 1001.60 1002.74 1003.86 1004.96 1006.03 1007.05 1007.98 1008.79 1009.47 1010.03 1010.50 1010.94 1011.37 1011.83 1012.32 1012.83 1013.34 1013.83 1014.26 1014.64 1014.97
1004.00 1003.65 1003.40 1003.15 1002.79 1002.19 1001.28 1000.02 998.46 996.74 995.03 993.54 992.46 991.90 991.90 992.43 993.39 994.65 996.07 997.51 998.92 1000.25 1001.50 1002.70 1003.87 1005.00 1006.09 1007.11 1008.03 1008.83 1009.50 1010.07 1010.56 1011.01 1011.45 1011.92 1012.42 1012.93 1013.43 1013.91 1014.35 1014.74 1015.09
1003.71 1003.44 1003.26 1003.06 1002.73 1002.16 1001.26 1000.03 998.53 996.86 995.22 993.79 992.74 992.19 992.17 992.66 993.57 994.77 996.14 997.56 998.97 1000.33 1001.63 1002.87 1004.06 1005.21 1006.29 1007.28 1008.16 1008.92 1009.56 1010.11 1010.60 1011.06 1011.53 1012.02 1012.53 1013.05 1013.55 1014.03 1014.46 1014.86 1015.22
1003.55 1003.35 1003.21 1003.05 1002.75 1002.22 1001.40 1000.26 998.86 997.33 995.82 994.50 993.54 993.01 992.97 993.39 994.19 995.29 996.56 997.92 999.29 1000.63 1001.94 1003.20 1004.40 1005.54 1006.58 1007.52 1008.33 1009.03 1009.62 1010.13 1010.60 1011.08 1011.57 1012.09 1012.63 1013.17 1013.68 1014.16 1014.59 1014.98 1015.34
1003.60 1003.42 1003.31 1003.17 1002.91 1002.44 1001.70 1000.70 999.47 998.13 996.80 995.64 994.78 994.29 994.22 994.54 995.21 996.14 997.27 998.51 999.79 1001.10 1002.38 1003.63 1004.83 1005.93 1006.93 1007.79 1008.52 1009.13 1009.64 1010.10 1010.56 1011.04 1011.56 1012.12 1012.70 1013.27 1013.80 1014.28 1014.71 1015.08 1015.43
1003.87 1003.70 1003.58 1003.45 1003.21 1002.79 1002.17 1001.32 1000.29 999.18 998.07 997.09 996.34 995.89 995.77 995.98 996.48 997.22 998.16 999.23 1000.40 1001.63 1002.87 1004.10 1005.27 1006.34 1007.28 1008.06 1008.70 1009.21 1009.64 1010.04 1010.47 1010.95 1011.50 1012.10 1012.72 1013.33 1013.89 1014.38 1014.80 1015.15 1015.47
1004.35 1004.16 1004.01 1003.86 1003.62 1003.26 1002.74 1002.06 1001.25 1000.37 999.49 998.70 998.07 997.65 997.47 997.54 997.85 998.38 999.11 1000.00 1001.03 1002.17 1003.36 1004.56 1005.71 1006.75 1007.63 1008.34 1008.89 1009.31 1009.65 1009.99 1010.37 1010.85 1011.41 1012.05 1012.72 1013.37 1013.95 1014.46 1014.86 1015.19 1015.48
1004.95 1004.73 1004.55 1004.36 1004.12 1003.81 1003.39 1002.87 1002.26 1001.60 1000.93 1000.32 999.80 999.41 999.17 999.10 999.22 999.54 1000.06 1000.78 1001.67 1002.72 1003.86 1005.03 1006.16 1007.18 1008.02 1008.67 1009.14 1009.48 1009.74 1010.01 1010.34 1010.79 1011.36 1012.01 1012.71 1013.39 1014.00 1014.51 1014.91 1015.22 1015.47
1005.60 1005.35 1005.13 1004.91 1004.66 1004.38 1004.05 1003.67 1003.24 1002.78 1002.30 1001.84 1001.42 1001.05 1000.76 1000.58 1000.54 1000.67 1001.01 1001.57 1002.34 1003.31 1004.41 1005.56 1006.68 1007.69 1008.51 1009.12 1009.53 1009.79 1009.98 1010.18 1010.46 1010.86 1011.40 1012.04 1012.74 1013.43 1014.04 1014.55 1014.95 1015.24 1015.47
1006.22 1005.96 1005.70 1005.46 1005.21 1004.96 1004.70 1004.43 1004.14 1003.85 1003.53 1003.20 1002.86 1002.52 1002.21 1001.94 1001.79 1001.78 1001.99 1002.43 1003.12 1004.02 1005.09 1006.23 1007.35 1008.35 1009.15 1009.74 1010.10 1010.31 1010.43 1010.56 1010.76 1011.10 1011.58 1012.18 1012.85 1013.51 1014.11 1014.61 1014.99 1015.27 1015.48
1006.77 1006.51 1006.24 1005.98 1005.74 1005.51 1005.31 1005.13 1004.96 1004.79 1004.60 1004.38 1004.12 1003.82 1003.51 1003.22 1003.01 1002.93 1003.06 1003.43 1004.06 1004.92 1005.96 1007.08 1008.19 1009.18 1009.98 1010.54 1010.88 1011.04 1011.11 1011.16 1011.28 1011.54 1011.93 1012.45 1013.04 1013.65 1014.21 1014.67 1015.04 1015.30 1015.49
1007.22 1006.98 1006.73 1006.48 1006.24 1006.05 1005.89 1005.77 1005.69 1005.61 1005.52 1005.39 1005.21 1004.98 1004.70 1004.44 1004.23 1004.15 1004.26 1004.60 1005.20 1006.02 1007.02 1008.12 1009.20 1010.16 1010.94 1011.48 1011.80 1011.93 1011.95 1011.94 1011.98 1012.13 1012.41 1012.81 1013.30 1013.81 1014.29 1014.71 1015.04 1015.29 1015.48
1007.60 1007.40 1007.17 1006.94 1006.73 1006.56 1006.44 1006.36 1006.33 1006.32 1006.30 1006.25 1006.14 1005.99 1005.79 1005.60 1005.46 1005.42 1005.56 1005.91 1006.49 1007.28 1008.23 1009.26 1010.28 1011.20 1011.93 1012.45 1012.75 1012.86 1012.85 1012.79 1012.75 1012.79 1012.95 1013.22 1013.56 1013.95 1014.34 1014.68 1014.97 1015.20 1015.38
1007.92 1007.76 1007.57 1007.37 1007.18 1007.04 1006.95 1006.91 1006.91 1006.93 1006.96 1006.97 1006.94 1006.87 1006.78 1006.69 1006.64 1006.69 1006.89 1007.26 1007.82 1008.55 1009.42 1010.36 1011.29 1012.13 1012.81 1013.29 1013.58 1013.68 1013.66 1013.57 1013.47 1013.42 1013.45 1013.57 1013.77 1014.01 1014.27 1014.53 1014.76 1014.97 1015.15
1008.19 1008.07 1007.92 1007.75 1007.60 1007.49 1007.41 1007.39 1007.41 1007.45 1007.51 1007.56 1007.59 1007.61 1007.62 1007.65 1007.71 1007.86 1008.11 1008.50 1009.04 1009.70 1010.46 1011.27 1012.07 1012.80 1013.41 1013.86 1014.14 1014.26 1014.24 1014.15 1014.02 1013.90 1013.82 1013.80 1013.84 1013.94 1014.07 1014.23 1014.40 1014.58 1014.77
1008.41 1008.33 1008.21 1008.08 1007.96 1007.86 1007.81 1007.80 1007.82 1007.87 1007.94 1008.01 1008.09 1008.18 1008.28 1008.41 1008.58 1008.81 1009.12 1009.52 1010.00 1010.57 1011.20 1011.86 1012.51 1013.12 1013.64 1014.05 1014.33 1014.48 1014.51 1014.44 1014.31 1014.15 1013.98 1013.85 1013.75 1013.70 1013.71 1013.77 1013.88 1014.04 1014.23
1008.54 1008.49 1008.41 1008.31 1008.22 1008.16 1008.12 1008.12 1008.14 1008.18 1008.25 1008.33 1008.44 1008.57 1008.74 1008.95 1009.19 1009.48 1009.82 1010.20 1010.62 1011.07 1011.56 1012.06 1012.56 1013.04 1013.48 1013.86 1014.15 1014.34 1014.42 1014.41 1014.30 1014.13 1013.92 1013.69 1013.48 1013.31 1013.21 1013.18 1013.24 1013.37 1013.58
1008.56 1008.54 1008.49 1008.43 1008.37 1008.34 1008.33 1008.34 1008.37 1008.41 1008.46 1008.54 1008.65 1008.80 1008.99 1009.24 1009.52 1009.84 1010.17 1010.52 1010.86 1011.20 1011.55 1011.89 1012.25 1012.62 1012.98 1013.32 1013.63 1013.87 1014.02 1014.08 1014.02 1013.86 1013.62 1013.34 1013.05 1012.78 1012.59 1012.49 1012.50 1012.62 1012.84
1008.44 1008.46 1008.44 1008.42 1008.41 1008.42 1008.45 1008.49 1008.53 1008.57 1008.61 1008.67 1008.76 1008.90 1009.08 1009.32 1009.61 1009.91 1010.22 1010.52 1010.78 1011.02 1011.24 1011.46 1011.69 1011.95 1012.25 1012.57 1012.89 1013.18 1013.40 1013.52 1013.52 1013.39 1013.15 1012.83 1012.49 1012.16 1011.90 1011.75 1011.73 1011.85 1012.08
1008.18 1008.24 1008.27 1008.30 1008.35 1008.41 1008.50 1008.58 1008.65 1008.70 1008.74 1008.78 1008.83 1008.93 1009.08 1009.28 1009.53 1009.79 1010.06 1010.30 1010.49 1010.64 1010.76 1010.87 1011.01 1011.19 1011.43 1011.73 1012.06 1012.37 1012.64 1012.82 1012.86 1012.76 1012.54 1012.21 1011.84 1011.47 1011.18 1010.99 1010.95 1011.06 1011.30
1007.81 1007.92 1008.01 1008.10 1008.22 1008.35 1008.50 1008.65 1008.76 1008.84 1008.88 1008.90 1008.92 1008.97 1009.05 1009.19 1009.37 1009.58 1009.78 1009.96 1010.10 1010.18 1010.24 1010.28 1010.35 1010.47 1010.66 1010.92 1011.24 1011.56 1011.84 1012.04 1012.11 1012.04 1011.82 1011.50 1011.12 1010.74 1010.43 1010.22 1010.17 1010.27 1010.50
1007.38 1007.56 1007.71 1007.87 1008.06 1008.28 1008.51 1008.72 1008.90 1009.02 1009.07 1009.08 1009.06 1009.05 1009.06 1009.12 1009.22 1009.35 1009.50 1009.62 1009.71 1009.75 1009.76 1009.76 1009.78 1009.85 1010.00 1010.21 1010.49 1010.78 1011.05 1011.24 1011.31 1011.25 1011.04 1010.73 1010.36 1009.98 1009.66 1009.45 1009.37 1009.46 1009.68
1006.96 1007.20 1007.43 1007.66 1007.93 1008.22 1008.53 1008.82 1009.06 1009.23 1009.30 1009.31 1009.26 1009.18 1009.12 1009.10 1009.11 1009.17 1009.24 1009.31 1009.36 1009.38 1009.36 1009.34 1009.32 1009.35 1009.44 1009.60 1009.81 1010.05 1010.26 1010.42 1010.47 1010.40 1010.20 1009.91 1009.55 1009.19 1008.87 1008.66 1008.57 1008.62 1008.80
Thickness
5800 5800 5793 5792 5791 5789 5787 5786 5786 5785 5784 5783 5782 5781 5779 5778 5776 5775 5774 5773 5772 5770 5769 5767 5767 5766 5765 5764 5763 5763 5762 5762 5761 5760 5759 5758 5757 5757 5757 5757 5758 5758 5756
5802 5799 5793 5791 5789 5788 5786 5785 5784 5784 5783 5782 5781 5779 5778 5776 5775 5774 5772 5771 5771 5769 5768 5766 5766 5765 5764 5763 5762 5762 5761 5760 5760 5759 5759 5758 5757 5756 5756 5756 5757 5757 5755
5802 5799 5794 5790 5788 5787 5785 5784 5783 5782 5782 5780 5779 5777 5776 5775 5773 5772 5771 5770 5769 5768 5767 5766 5765 5764 5763 5762 5761 5760 5760 5759 5759 5758 5759 5760 5758 5756 5755 5755 5755 5754 5754
5801 5798 5794 5789 5787 5786 5784 5783 5781 5781 5780 5779 5778 5776 5775 5773 5771 5770 5769 5768 5767 5767 5766 5765 5764 5763 5762 5761 5760 5760 5759 5759 5759 5759 5761 5762 5761 5756 5755 5754 5754 5753 5752
5799 5797 5792 5788 5786 5785 5783 5782 5780 5779 5779 5778 5777 5776 5775 5773 5771 5769 5767 5767 5766 5765 5764 5764 5763 5762 5762 5761 5760 5759 5759 5758 5758 5759 5762 5762 5760 5757 5755 5754 5753 5753 5752
5799 5797 5792 5787 5785 5783 5782 5781 5779 5778 5778 5777 5776 5775 5774 5772 5770 5768 5767 5766 5765 5764 5763 5763 5762 5761 5761 5760 5760 5759 5759 5759 5759 5762 5762 5762 5761 5757 5755 5754 5753 5752 5751
5799 5797 5792 5786 5783 5782 5780 5779 5778 5777 5776 5775 5774 5773 5772 5771 5770 5768 5767 5766 5765 5764 5763 5762 5761 5761 5760 5760 5759 5759 5758 5759 5761 5763 5762 5762 5761 5757 5755 5754 5753 5752 5751
5799 5797 5792 5786 5783 5781 5779 5777 5776 5776 5775 5774 5773 5772 5771 5770 5769 5768 5767 5766 5765 5764 5763 5762 5761 5761 5760 5760 5759 5759 5758 5758 5762 5764 5763 5762 5759 5757 5755 5754 5753 5751 5750
5798 5796 5793 5790 5785 5781 5779 5776 5775 5774 5773 5772 5772 5771 5770 5770 5769 5768 5767 5766 5765 5764 5763 5762 5761 5760 5760 5760 5759 5759 5759 5759 5762 5764 5764 5762 5759 5757 5756 5754 5753 5752 5750
5796 5794 5792 5790 5788 5785 5781 5776 5775 5773 5772 5772 5771 5771 5770 5770 5770 5769 5768 5766 5765 5764 5763 5762 5761 5761 5760 5760 5760 5759 5759 5760 5764 5765 5765 5763 5759 5758 5756 5755 5753 5752 5750
5791 5792 5791 5790 5788 5785 5783 5779 5776 5774 5772 5772 5772 5771 5771 5773 5773 5771 5769 5767 5765 5764 5763 5762 5761 5761 5761 5761 5760 5760 5760 5764 5765 5766 5764 5762 5760 5758 5757 5755 5754 5752 5751
5786 5788 5789 5788 5786 5784 5783 5780 5778 5777 5774 5773 5772 5772 5772 5772 5771 5771 5768 5767 5765 5764 5763 5763 5762 5762 5762 5764 5763 5761 5764 5766 5766 5766 5764 5761 5760 5758 5757 5756 5754 5753 5751
5786 5786 5788 5786 5784 5783 5781 5780 5778 5776 5774 5773 5772 5771 5771 5771 5771 5771 5769 5768 5767 5766 5765 5764 5764 5764 5764 5764 5764 5765 5765 5766 5767 5767 5765 5762 5760 5759 5758 5756 5755 5753 5752
5784 5784 5786 5785 5782 5780 5779 5779 5777 5777 5775 5774 5772 5771 5771 5771 5771 5770 5768 5768 5767 5767 5765 5765 5764 5764 5763 5763 5763 5764 5765 5766 5766 5766 5764 5761 5760 5759 5758 5757 5755 5754 5753
5783 5783 5783 5782 5780 5778 5776 5776 5777 5776 5775 5774 5772 5771 5771 5771 5770 5769 5767 5766 5767 5766 5766 5764 5764 5763 5763 5763 5763 5764 5765 5766 5766 5766 5764 5761 5760 5759 5758 5757 5756 5754 5752
5782 5782 5782 5780 5779 5777 5775 5774 5774 5774 5772 5773 5772 5771 5769 5770 5768 5767 5766 5766 5766 5766 5765 5764 5764 5763 5763 5763 5763 5763 5764 5765 5764 5764 5764 5762 5759 5758 5757 5757 5756 5754 5753
5782 5781 5780 5780 5778 5776 5775 5774 5774 5774 5773 5772 5770 5769 5767 5767 5766 5765 5766 5765 5765 5764 5763 5763 5763 5763 5762 5763 5763 5763 5763 5763 5763 5762 5762 5762 5761 5758 5757 5756 5755 5754 5753
5783 5780 5779 5780 5777 5774 5773 5772 5773 5772 5771 5770 5769 5768 5766 5765 5763 5763 5763 5763 5762 5762 5763 5762 5762 5761 5761 5761 5762 5763 5763 5762 5761 5761 5761 5761 5761 5760 5758 5756 5754 5753 5752
5782 5779 5777 5776 5775 5774 5772 5771 5770 5769 5768 5768 5768 5766 5764 5763 5762 5762 5762 5761 5761 5761 5761 5761 5760 5760 5759 5759 5761 5761 5762 5761 5761 5761 5760 5760 5759 5759 5758 5755 5753 5752 5751
5782 5779 5776 5774 5772 5772 5771 5770 5769 5768 5768 5767 5766 5764 5762 5761 5760 5760 5761 5759 5759 5759 5758 5758 5757 5757 5757 5758 5760 5760 5761 5762 5761 5760 5760 5759 5758 5757 5757 5756 5754 5753 5750
5781 5778 5775 5772 5770 5769 5768 5767 5765 5765 5765 5765 5764 5761 5760 5759 5759 5757 5758 5756 5756 5757 5755 5756 5756 5756 5756 5756 5754 5754 5758 5761 5760 5758 5758 5757 5757 5755 5755 5754 5754 5753 5751
5780 5778 5775 5772 5770 5768 5766 5764 5763 5763 5764 5763 5762 5759 5758 5757 5756 5758 5754 5755 5754 5753 5753 5753 5753 5753 5754 5754 5751 5749 5748 5751 5754 5759 5756 5755 5754 5753 5752 5752 5751 5750 5750
5780 5778 5776 5771 5769 5766 5765 5764 5762 5760 5760 5760 5758 5756 5755 5754 5754 5753 5752 5752 5752 5752 5752 5750 5750 5749 5748 5750 5751 5748 5744 5742 5745 5751 5752 5751 5750 5749 5750 5750 5748 5748 5747
5781 5778 5774 5770 5768 5766 5764 5761 5758 5756 5754 5754 5754 5754 5752 5751 5750 5750 5750 5749 5749 5749 5748 5749 5750 5748 5746 5745 5747 5747 5746 5744 5740 5740 5745 5747 5747 5746 5746 5746 5746 5745 5743
5781 5778 5774 5769 5766 5764 5762 5759 5756 5755 5754 5754 5752 5749 5748 5748 5747 5747 5747 5746 5745 5746 5745 5744 5744 5745 5745 5744 5743 5743 5741 5741 5741 5737 5735 5738 5741 5743 5743 5742 5741 5741 5739
5780 5776 5773 5767 5763 5762 5759 5757 5753 5751 5749 5748 5747 5746 5746 5747 5745 5744 5744 5742 5742 5742 5741 5741 5740 5741 5741 5740 5740 5740 5738 5736 5735 5736 5734 5733 5734 5737 5738 5737 5737 5736 5736